sat.trackr.live / text

‹ back to catalog

FLOCK 4H-2

NORAD 66705 · 2025-276AR

PAYLOAD ACTIVE UNKNOWN

§ Identity

Operator
Country
US
Launch date
2025-11-28
Launch site
AFWTR
Launch vehicle
Mass (kg)
RCS (m²)

Purposes: earth_obs

External: N2YO · Heavens-Above · Gunter

§ Orbital elements

Epoch: 2026-05-25T03:04:48.086112Z

Period
94.71 min
Inclination
97.4178°
Eccentricity
0.0002561
Mean motion
15.20507737 rev/d
Perigee alt
502.5 km
Apogee alt
506.1 km
Semi-major
6,882.4 km
B*
2.5411e-4
RAAN
219.2137°
Arg perigee
75.3601°
Mean anomaly
284.7918°
Rev number
2,693

§ Raw data

FLOCK 4H-21 66705U 25276AR  26145.12833433  .00005487  00000+0  25411-3 0  99902 66705  97.4178 219.2137 0002561  75.3601 284.7918 15.20507737 26939

JSON: /api/v1/satellites/66705 · /tle

For live sub-satellite position, see the globe view (requires WebGL).

§ Visibility from observer

Set your observer location to see the next 7 days of passes ≥ 10°. The values pass through the URL so the page stays shareable.

No JS? Fill the form by hand. The geolocation button needs JavaScript.